Weather History for CWWE - February, 2013

Change the Weather History Date:

Monday, February 25, 2013

  Actual Average Record
Temperature  
Mean Temperature 32 °F -  
Max Temperature 41 °F - - ()
Min Temperature 22 °F - - ()
Degree Days  
Heating Degree Days 34    
Moisture  
Dew Point 22 °F    
Average Humidity 67    
Maximum Humidity 85    
Minimum Humidity 38    
Precipitation  
Precipitation 0.00 in - - ()
Sea Level Pressure  
Sea Level Pressure 29.95 in    
Wind  
Wind Speed 9 mph ()    
Max Wind Speed 14 mph    
Max Gust Speed 23 mph    
T = Trace of Precipitation, MM = Missing Value Source: Averaged Metar Reports

Daily Weather History Graph

Daily Weather History Graph

Search for Another Location

Airport or City:

Trip Planner

Search our weather history database for the weather conditions in past years. The results will help you decide how hot, cold, wet, or windy it might be!

Date:

Astronomy

Feb. 25, 2013 Rise Set
Actual Time 7:01 AM AST 6:02 PM AST
Civil Twilight 6:32 AM AST 6:31 PM AST
Nautical Twilight 5:59 AM AST 7:04 PM AST
Astronomical Twilight 5:26 AM AST 7:38 PM AST
Moon 6:13 PM AST (2/25) 6:28 AM AST (2/25)
Length of Visible Light 11h 58m
Length of Day
11h 00m
Full, 100% of the Moon is Illuminated
Feb 25
Full
Feb 25
Full
Mar 4
Last Quarter
Mar 11
New
Mar 19
First Quarter

Hourly Weather History & Observations

Time (AST) Temp. Windchill Dew Point Humidity Pressure Visibility Wind Dir Wind Speed Gust Speed Precip Events Conditions
12:00 AM 28.9 °F 18.2 °F 24.8 °F 84% 29.70 in - NE 13.8 mph 23.0 mph N/A   Unknown
1:00 AM 28.2 °F 17.7 °F 24.1 °F 84% 29.70 in - NE 12.7 mph 20.7 mph N/A   Unknown
2:00 AM 27 °F - 22 °F 73% 29.72 in - NNE 11.5 mph - -  
2:00 AM 26.8 °F 16.5 °F 21.7 °F 81% 29.72 in - NNE 11.5 mph 20.7 mph N/A   Unknown
3:00 AM 26.1 °F 16.8 °F 21.6 °F 83% 29.73 in - NNE 9.2 mph 19.6 mph N/A   Unknown
4:00 AM 25.2 °F 14.4 °F 20.7 °F 83% 29.75 in - North 11.5 mph 18.4 mph N/A   Unknown
5:00 AM 23 °F - 19 °F 77% 29.79 in - North 12.7 mph - -  
5:00 AM 23.4 °F 11.6 °F 18.9 °F 83% 29.79 in - North 12.7 mph 19.6 mph N/A   Unknown
6:00 AM 23.0 °F 11.7 °F 19.0 °F 85% 29.82 in - North 11.5 mph 19.6 mph N/A   Unknown
7:00 AM 23.4 °F 12.8 °F 19.0 °F 84% 29.85 in - North 10.4 mph 17.3 mph N/A   Unknown
8:00 AM 24 °F - 19 °F 75% 29.88 in - North 11.5 mph - -  
8:00 AM 23.9 °F 12.9 °F 19.4 °F 83% 29.88 in - North 11.5 mph 18.4 mph N/A   Unknown
9:00 AM 25.9 °F 15.3 °F 18.5 °F 74% 29.90 in - North 11.5 mph 18.4 mph N/A   Unknown
10:00 AM 29.7 °F 22.0 °F 17.6 °F 61% 29.93 in - North 8.1 mph - N/A   Unknown
11:00 AM 34 °F - 18 °F 38% 29.94 in - North 10.4 mph - -  
11:00 AM 34.3 °F 26.5 °F 18.0 °F 51% 29.94 in - North 10.4 mph - N/A   Unknown
12:00 PM 36.7 °F 31.2 °F 18.1 °F 47% 29.94 in - North 6.9 mph - N/A   Unknown
1:00 PM 38.8 °F 34.6 °F 23.4 °F 54% 29.96 in - ENE 5.8 mph - N/A   Unknown
2:00 PM 41 °F - 26 °F 43% 29.98 in - ENE 6.9 mph - -  
2:00 PM 41.4 °F 36.8 °F 26.2 °F 55% 29.98 in - ENE 6.9 mph - N/A   Unknown
3:00 PM 40.1 °F 36.1 °F 25.5 °F 56% 29.99 in - NE 5.8 mph - N/A   Unknown
4:00 PM 39.6 °F 35.4 °F 24.4 °F 55% 30.03 in - ENE 5.8 mph - N/A   Unknown
5:00 PM 38 °F - 23 °F 41% 30.05 in - North 4.6 mph - -  
5:00 PM 37.8 °F 34.2 °F 22.8 °F 55% 30.05 in - North 4.6 mph - N/A   Unknown
6:00 PM 35.6 °F 30.7 °F 22.8 °F 60% 30.10 in - North 5.8 mph - N/A   Unknown
7:00 PM 33.4 °F 28.1 °F 21.2 °F 61% 30.14 in - North 5.8 mph - N/A   Unknown
8:00 PM 32 °F - 22 °F 55% 30.15 in - North 4.6 mph - -  
8:00 PM 31.6 °F 27.0 °F 21.9 °F 67% 30.15 in - North 4.6 mph - N/A   Unknown
9:00 PM 30.9 °F 25.2 °F 21.7 °F 69% 30.17 in - North 5.8 mph - N/A   Unknown
10:00 PM 29.8 °F 23.0 °F 22.5 °F 74% 30.18 in - North 6.9 mph - N/A   Unknown
11:00 PM 29 °F - 23 °F 70% 30.19 in - North 5.8 mph - -  
11:00 PM 28.9 °F 22.8 °F 23.0 °F 78% 30.19 in - North 5.8 mph - N/A   Unknown